Volver al catálogo

FENGYUN 1C DEB

ActivoSSO
NORAD 32101·DEBRIS·🇨🇳 China

Lanzado May 10, 1999 desde Taiyuan Satellite Launch Center

Loading…

Próximos Pases (próximas 24 horas)

TLE

ActualizadoSource: Space-Track

Época: Sep 14, 2026, 13:11 UTC

1 32101U 99025CQT 26257.54990961  .00001159  00000-0  73018-3 0  9995
2 32101  99.0210 159.1919 0116084 192.6569 167.1676 14.02993360970482

Sigue FENGYUN 1C DEB en tiempo real con AllMySat

Download on the App Store